Theta_e
311 311 315 316 315 313 307 304 305 303 302 303 306 308 306 304 303 303 305 306 307 307 307 308 309 309 308 306 306 307 308 307 307 308 309 309 308 308 307 307 307 306 307 307 308 309 309 309 309 309 312 312 309 309 307 305 307 313 317 315 313 314 313 312 312 309 309 309 306 303 302 305 306 303 302 302 303 304 304 303 304 305 304 305 305 304 303 304
311 312 316 317 316 316 312 308 306 304 304 304 304 304 304 304 303 303 306 306 307 307 307 308 310 310 308 306 305 307 308 307 307 308 309 308 308 308 307 307 306 306 306 307 308 309 310 310 309 310 312 312 308 308 309 305 307 315 316 314 314 315 311 308 308 307 307 308 306 303 302 303 304 304 302 304 305 304 304 305 305 304 305 306 305 304 303 303
311 314 317 318 317 317 316 313 309 305 304 304 305 305 304 304 303 304 306 307 307 307 308 309 311 310 308 306 305 306 307 308 309 309 308 308 308 308 308 307 306 306 307 308 307 308 309 309 309 309 312 312 308 307 310 307 307 311 313 315 315 313 308 304 304 304 304 305 306 304 301 301 303 303 303 305 306 305 305 307 306 305 306 306 306 306 306 305
311 316 319 319 318 317 317 316 312 308 305 304 306 307 305 304 304 305 306 307 307 308 308 308 310 309 308 307 305 306 308 309 309 308 308 308 308 308 308 307 306 306 307 308 308 308 308 308 308 309 312 312 307 307 309 306 307 310 311 313 312 307 307 305 302 302 301 302 305 304 301 302 303 302 303 305 306 307 307 307 307 307 307 306 306 307 307 306
309 317 320 319 318 318 318 317 315 312 307 303 306 309 307 304 304 305 306 307 308 308 308 308 309 309 308 308 306 307 308 310 309 308 309 308 308 308 307 306 306 306 307 308 307 307 307 308 310 310 311 311 309 309 308 303 304 309 308 307 305 304 307 304 300 301 299 300 302 303 303 304 303 302 303 304 306 308 307 306 306 306 306 305 305 305 305 306
309 315 318 318 318 319 319 319 318 316 312 306 304 307 307 303 303 304 306 308 308 308 308 308 308 308 309 308 306 307 310 310 309 309 309 308 308 308 307 306 306 306 307 308 307 307 308 308 310 310 310 310 309 309 307 301 302 309 307 302 302 302 304 303 300 300 298 300 303 303 304 303 303 304 303 303 305 307 305 303 303 304 303 301 302 304 305 306
309 313 316 318 318 320 320 320 320 318 318 313 304 303 304 303 303 304 307 308 309 309 309 309 309 308 309 308 307 309 311 310 308 309 308 308 309 309 307 307 307 306 308 309 308 310 310 308 309 309 311 310 307 306 305 302 302 308 308 303 302 300 301 302 299 299 298 300 302 301 302 302 304 305 302 301 305 306 305 303 302 302 300 300 301 304 305 307
311 312 315 318 319 320 320 321 322 320 322 318 306 301 303 303 304 305 308 309 309 310 309 309 309 309 308 309 310 311 311 309 308 309 308 308 310 309 307 307 308 307 308 309 308 312 312 309 309 307 310 309 306 306 303 304 305 307 307 303 301 300 301 300 298 300 299 300 300 300 303 304 304 302 301 303 305 305 304 303 302 301 301 301 301 303 304 306
313 314 316 319 320 321 321 322 322 322 323 317 305 301 302 303 304 307 309 310 310 310 309 309 308 308 308 309 311 312 310 308 308 309 308 308 310 309 308 307 308 307 308 309 308 310 311 312 312 309 308 306 304 305 303 306 308 305 304 303 302 302 301 300 300 301 300 301 302 302 305 305 302 301 304 306 305 303 301 301 301 301 301 302 303 303 304 304
312 316 318 320 321 321 321 322 322 323 322 312 302 301 303 304 306 308 309 310 311 310 310 310 308 307 307 309 311 311 310 308 308 309 307 308 309 309 308 308 308 308 308 309 308 308 310 312 311 310 309 306 304 303 302 304 305 302 302 302 302 302 301 301 302 301 301 302 302 304 306 305 302 303 308 306 302 300 301 303 301 301 303 303 303 303 304 304
313 318 320 320 321 321 321 322 322 321 316 305 301 303 304 305 307 308 309 310 310 309 311 313 311 308 307 309 311 310 310 309 309 308 307 308 309 309 308 308 308 308 308 309 308 308 309 307 306 309 309 307 305 303 301 302 302 301 302 303 302 302 302 302 303 302 303 302 301 303 305 306 304 304 309 307 301 300 303 305 303 302 303 303 302 302 303 304
309 313 315 317 318 320 321 321 317 311 306 302 302 304 305 307 308 309 309 310 310 310 311 313 311 308 308 310 311 311 310 310 309 308 308 308 309 310 308 308 307 307 308 309 308 307 307 304 307 313 310 307 305 305 303 300 300 300 301 304 304 303 303 303 303 302 303 304 301 302 306 310 307 306 309 306 301 302 303 305 305 303 303 302 302 301 302 304
303 304 306 308 311 314 314 311 307 303 302 302 304 305 307 307 308 309 309 309 310 311 311 312 312 309 310 312 311 310 310 310 309 308 308 308 309 309 308 308 308 308 307 308 306 305 305 304 309 314 310 308 305 303 304 301 300 302 302 304 306 306 305 304 303 303 304 305 301 303 308 313 311 308 309 305 302 304 305 306 306 305 303 303 303 302 303 304
302 302 302 304 305 306 306 303 302 302 302 304 305 307 308 308 309 309 309 309 309 310 311 312 312 311 311 311 310 309 310 309 308 308 309 309 309 307 306 307 308 307 307 306 305 305 305 304 308 311 307 307 304 302 305 304 304 305 304 306 307 307 306 305 303 305 306 304 302 305 309 313 313 311 308 304 302 304 307 307 306 305 304 304 304 303 304 305
302 302 303 303 303 303 303 303 303 302 303 305 307 308 309 309 309 309 309 309 310 312 312 313 312 311 311 312 310 309 309 309 309 309 309 310 310 309 307 307 307 307 306 305 305 305 304 305 311 310 305 304 306 306 308 307 306 306 306 308 309 307 308 308 303 304 307 305 303 307 310 313 314 311 306 302 302 305 307 308 307 306 306 305 304 304 304 304
302 302 303 303 304 303 304 304 303 303 305 307 309 309 309 309 309 309 309 309 311 313 313 314 312 311 312 312 310 309 309 310 309 308 310 311 311 311 310 309 308 307 307 307 306 306 305 309 312 308 305 306 308 309 309 308 308 308 307 309 311 309 309 310 305 302 304 305 305 308 310 313 313 310 305 301 302 305 307 309 308 308 308 306 306 305 305 305
302 303 303 304 304 303 304 304 304 305 306 308 309 308 308 309 310 310 310 310 311 312 312 313 311 310 312 310 310 311 310 310 309 308 310 311 311 311 311 311 310 308 309 309 308 309 310 311 309 307 309 309 308 309 307 306 307 308 309 310 311 310 309 309 308 305 303 305 308 308 308 311 313 310 307 304 304 305 308 309 310 310 309 308 307 306 305 305
302 303 303 303 303 303 303 303 304 306 307 309 308 307 309 311 311 311 311 311 311 311 311 311 309 310 311 309 310 310 309 310 309 308 309 311 311 311 311 311 310 310 313 312 310 313 312 311 311 310 311 309 309 309 306 307 309 310 310 310 310 310 310 311 311 307 305 307 309 309 310 311 313 312 311 309 306 306 307 309 309 309 309 308 307 306 306 306
302 304 304 303 302 303 303 304 305 307 308 307 307 308 309 310 311 310 310 311 313 313 313 313 312 312 313 312 311 309 309 310 309 308 309 311 310 311 310 310 314 315 316 314 312 314 312 311 312 310 310 311 312 312 309 309 313 315 314 312 312 311 311 312 310 306 304 308 310 311 312 312 313 313 313 312 308 306 307 307 308 307 307 307 306 306 307 306
303 304 304 304 303 304 305 305 306 307 307 306 307 308 309 313 313 313 312 312 314 314 315 317 314 314 314 313 311 310 310 309 309 309 309 310 311 312 311 314 322 320 316 316 313 312 310 311 312 311 311 312 312 310 308 308 310 314 315 314 315 314 312 312 309 305 302 308 312 311 311 311 311 312 312 311 308 306 307 307 307 307 308 308 307 307 307 307
303 304 305 305 305 305 306 306 307 307 307 306 307 309 312 317 316 314 315 312 309 307 312 314 310 312 311 310 309 309 312 311 309 310 309 310 311 311 313 318 320 313 314 317 315 311 310 311 312 310 308 307 306 305 305 308 310 312 313 314 315 314 313 312 308 305 303 308 312 309 309 311 311 313 313 312 309 308 309 309 309 308 308 308 307 308 308 307
303 304 305 306 306 306 306 307 307 307 307 306 307 309 310 313 312 310 313 313 309 304 308 310 308 312 309 307 308 307 313 314 311 312 309 310 313 313 316 319 318 314 314 315 314 313 313 311 310 304 303 304 305 304 305 309 311 313 313 314 315 314 313 311 307 305 304 308 313 310 309 312 313 313 312 311 310 309 309 309 309 308 308 307 306 308 308 307
303 303 305 307 307 306 306 307 307 306 307 306 308 308 307 309 310 309 312 314 312 307 310 312 311 315 312 309 308 308 315 315 312 315 309 311 317 316 318 321 321 318 316 317 315 313 313 312 306 301 302 306 306 305 307 310 312 313 314 314 314 313 313 312 309 306 304 307 310 309 309 312 313 312 311 308 307 308 308 306 306 306 307 307 307 307 307 308
303 303 304 306 306 306 306 306 305 306 306 306 308 308 307 310 309 310 314 314 313 310 310 310 310 314 314 310 308 310 316 312 311 314 309 312 318 315 317 320 319 317 316 319 320 316 315 308 301 302 303 305 308 308 308 311 313 313 314 314 314 312 311 311 311 308 307 306 305 308 311 313 315 315 313 309 306 308 308 306 307 305 305 306 305 306 306 307
302 303 303 304 304 306 304 304 305 305 306 307 308 308 308 310 309 311 316 316 315 313 309 308 309 311 309 308 308 311 314 313 312 310 306 311 317 314 314 312 313 316 317 316 317 316 314 303 301 305 305 305 308 310 310 312 314 314 312 311 310 310 309 310 311 311 312 312 306 307 312 313 316 318 316 312 309 310 310 308 309 308 306 305 305 306 306 307
302 303 303 303 304 304 304 306 307 306 309 310 308 309 309 311 311 309 316 318 316 316 314 312 311 309 309 309 310 311 314 313 309 306 306 309 311 312 313 309 309 314 314 312 311 311 308 301 302 306 307 308 310 311 310 310 313 314 310 306 306 307 309 310 311 312 314 313 307 306 312 313 315 318 317 313 311 311 311 309 310 309 307 307 306 307 308 307
303 303 303 304 303 304 306 310 309 308 313 312 308 311 310 311 309 306 313 316 310 312 315 313 310 309 311 309 309 313 314 312 308 307 307 308 308 309 313 313 310 311 309 309 310 310 305 303 304 306 307 310 312 312 309 307 312 314 307 304 305 306 309 309 309 312 312 312 309 307 311 313 313 316 315 310 310 312 312 310 310 309 308 308 307 307 308 308
303 303 303 303 304 306 307 308 309 309 312 311 309 311 310 309 307 307 314 311 307 310 313 313 309 309 312 308 309 314 313 311 313 310 305 305 308 310 315 317 314 312 307 309 311 310 305 307 307 307 309 310 311 310 305 304 311 311 303 303 305 305 308 307 309 312 309 310 314 310 309 312 313 315 314 310 311 314 313 312 311 309 309 308 308 308 308 308
302 303 304 303 305 308 307 308 311 310 310 310 310 310 308 306 306 312 315 308 307 311 311 312 309 309 313 311 311 315 312 310 314 311 306 306 307 309 313 313 311 312 307 309 313 309 304 305 305 306 309 310 308 303 300 304 309 306 302 304 306 305 307 307 308 311 310 311 315 311 307 311 313 314 314 311 312 315 314 313 311 309 309 309 309 309 308 307
302 304 304 303 306 307 306 308 310 309 310 310 310 308 305 307 311 313 312 309 310 311 310 311 312 312 313 312 313 315 312 313 313 311 310 310 310 309 308 307 310 313 311 309 310 307 304 303 302 304 306 305 303 300 299 301 303 304 305 308 309 307 305 307 307 309 312 313 313 308 305 310 312 313 316 315 314 316 315 312 311 309 309 309 308 309 307 306
302 303 304 304 305 306 306 308 308 309 311 310 307 306 306 313 316 312 308 309 311 311 311 313 313 314 315 313 314 315 313 314 313 313 313 312 311 311 308 309 311 313 313 312 311 307 307 307 305 303 302 301 303 304 301 300 302 305 308 310 312 311 308 310 311 310 314 314 311 307 305 308 311 313 315 315 313 313 312 312 311 309 309 309 308 307 306 306
302 303 304 304 305 305 306 308 308 309 310 307 305 310 314 313 313 312 311 311 311 311 313 314 314 316 316 314 315 315 314 313 313 314 314 312 312 311 312 313 312 312 312 313 313 310 310 309 305 302 301 301 306 309 306 304 305 307 310 311 313 314 312 313 313 312 313 313 309 306 306 309 312 313 314 314 313 311 310 311 311 310 309 309 308 307 306 306
302 303 303 304 305 305 305 306 307 309 309 305 307 317 320 314 312 314 313 312 309 308 311 314 313 314 315 313 313 312 311 311 312 312 311 311 312 313 314 312 311 314 314 312 312 313 312 310 305 306 306 302 305 311 312 310 308 309 312 313 314 314 313 314 313 311 312 312 308 305 307 312 313 313 314 313 311 309 306 306 308 310 310 309 308 307 306 306
302 303 303 304 304 305 306 306 307 309 306 306 314 317 313 313 313 310 312 313 308 306 311 313 312 312 312 313 312 310 311 312 311 312 312 311 311 312 314 312 309 312 313 312 312 313 314 313 309 309 307 303 304 307 307 308 310 310 309 310 313 314 313 314 314 312 313 313 309 305 309 314 313 312 312 310 308 306 304 303 303 305 308 308 307 306 306 306
303 303 303 304 304 305 306 306 307 307 304 312 324 318 311 316 315 311 317 317 309 309 311 309 311 314 312 312 312 309 311 312 309 310 312 312 312 312 314 316 312 310 312 313 311 310 311 311 308 304 303 301 304 304 301 305 311 309 305 309 313 312 312 313 312 312 312 313 312 310 312 314 314 314 312 308 307 306 304 304 303 303 305 306 306 306 306 306
303 302 303 303 303 305 305 306 307 306 308 319 323 316 316 320 314 312 317 314 311 314 312 310 312 313 312 311 311 310 308 309 309 309 310 311 312 313 314 315 312 310 312 312 311 310 310 310 305 302 302 300 302 302 299 304 310 309 308 312 310 306 309 313 310 307 309 313 315 313 313 313 313 314 312 308 307 307 306 305 304 305 305 305 307 307 307 306
303 302 304 303 303 304 304 306 306 306 314 323 318 315 319 315 310 313 315 310 310 312 311 313 311 310 315 313 310 311 309 308 309 310 311 311 311 313 314 312 307 308 309 309 311 311 310 311 306 302 305 301 297 299 300 301 304 309 311 310 306 304 308 311 312 311 312 315 315 312 312 312 311 313 314 313 311 309 308 306 306 306 306 306 308 308 308 307
303 303 305 304 304 304 303 305 305 309 319 319 315 317 316 310 307 309 310 308 310 313 313 312 310 309 315 315 311 310 309 310 311 311 311 310 310 313 314 311 306 304 303 304 309 309 309 311 308 301 304 303 298 301 305 303 301 307 309 304 305 311 312 311 312 313 313 314 314 312 310 310 311 312 314 316 316 313 309 308 307 307 306 307 308 308 307 306
304 307 310 306 304 304 305 305 307 315 320 314 315 316 311 310 307 303 306 308 310 314 314 313 310 309 312 313 313 311 309 310 311 310 310 310 310 311 309 309 307 302 300 302 308 307 306 309 311 303 302 303 302 305 309 308 303 303 306 303 304 309 311 311 311 311 312 313 313 313 312 311 312 313 313 315 316 314 311 309 308 308 307 307 308 308 307 306
302 311 314 305 304 307 305 306 311 318 317 312 315 314 307 307 306 300 302 306 309 311 313 315 311 310 313 312 310 311 309 310 310 310 310 309 310 311 307 307 307 303 300 301 306 307 305 307 310 306 301 304 307 307 308 310 308 306 308 308 307 306 307 309 309 308 311 313 312 313 313 312 314 315 314 314 315 313 312 311 310 309 308 308 308 308 308 306
303 314 314 303 304 307 306 310 314 313 314 312 311 311 308 306 305 302 300 301 305 306 308 314 313 311 315 313 309 310 310 310 309 309 310 309 310 311 307 303 305 303 303 305 306 307 306 307 309 309 306 308 309 303 300 303 304 306 309 310 310 309 309 310 311 308 308 310 310 311 312 313 316 317 315 314 314 312 310 311 311 311 309 308 308 308 308 307
308 315 309 302 305 306 308 315 306 299 311 313 306 307 308 304 304 304 301 300 305 304 303 310 313 311 313 312 310 310 311 311 309 309 310 310 311 310 305 299 301 302 305 307 307 305 305 306 309 310 308 306 303 298 296 297 297 301 304 305 307 309 310 312 313 310 307 307 307 307 310 313 315 313 311 311 310 308 306 307 309 310 309 308 308 307 307 307
316 316 304 301 304 306 309 314 306 303 311 306 298 301 303 302 303 303 302 303 306 305 306 310 310 310 311 309 309 311 311 312 312 311 310 309 308 307 302 298 300 301 304 306 306 305 305 307 310 310 307 302 298 297 296 295 296 302 304 302 304 307 309 310 310 309 309 308 308 308 311 315 314 309 307 308 306 306 305 304 306 307 307 307 307 306 306 306
317 312 306 303 303 305 311 315 313 313 312 304 301 303 301 299 301 304 305 305 305 306 310 311 309 309 308 305 307 311 310 311 314 312 309 309 307 301 297 298 299 302 305 307 307 307 307 309 310 311 310 308 306 305 303 300 300 305 306 302 303 305 306 307 307 307 309 310 311 312 312 314 314 310 307 308 307 308 307 305 305 306 306 307 306 304 305 306
309 306 310 307 302 305 310 312 315 317 313 309 309 307 305 302 300 301 304 304 303 305 309 309 306 306 305 302 305 308 306 307 311 309 306 307 306 299 296 297 298 302 305 303 304 307 308 308 309 311 313 312 312 310 309 307 305 305 304 303 303 304 306 309 309 309 310 310 310 312 313 313 313 311 309 309 309 309 309 307 306 305 305 305 305 304 304 305
308 308 312 309 305 309 307 302 308 316 315 311 308 306 307 307 302 298 300 303 303 302 305 305 303 304 304 303 307 311 307 304 305 306 306 307 305 300 297 297 298 301 302 300 301 304 306 307 308 310 312 313 313 310 307 307 307 307 307 305 303 303 305 308 309 310 311 309 308 311 314 314 313 312 311 310 311 311 312 311 310 308 306 305 304 304 303 304
307 312 314 309 307 311 309 303 305 310 310 309 308 306 306 306 303 299 298 300 300 300 303 304 303 306 307 306 309 312 309 305 304 305 307 307 305 301 296 296 298 299 300 301 301 302 306 308 307 308 309 310 309 306 305 307 308 308 309 308 305 303 304 307 310 311 311 310 311 313 314 313 313 312 312 312 311 311 312 312 311 310 309 306 304 303 302 303
303 308 308 303 305 311 310 307 307 307 305 305 305 304 305 307 306 305 303 299 297 299 303 305 305 308 309 309 310 312 309 307 308 309 309 306 304 302 299 298 297 298 300 300 298 301 307 309 307 305 307 308 305 303 304 306 307 307 307 308 307 305 304 307 310 310 310 311 313 313 314 313 312 311 311 312 310 309 310 310 310 310 309 307 305 303 302 302
301 305 300 296 304 313 309 305 307 308 306 305 306 304 305 308 309 306 303 300 301 300 301 308 310 307 308 308 308 311 312 312 312 312 309 308 306 303 304 304 299 296 298 299 299 301 306 309 307 304 306 308 303 299 301 303 305 306 305 306 307 306 305 307 310 310 309 312 313 313 314 313 312 311 311 310 309 308 308 308 309 309 309 308 307 304 303 302
304 307 304 301 304 306 301 300 303 307 304 303 306 305 303 307 309 306 302 305 311 305 299 307 311 306 305 306 306 310 314 314 313 311 308 309 308 305 306 309 304 298 297 299 300 300 303 308 307 304 307 308 301 297 298 300 302 305 306 305 305 305 305 305 307 308 308 310 311 311 311 311 310 310 310 309 309 308 307 307 307 307 308 309 308 306 304 303
299 300 302 308 308 304 301 300 300 305 304 302 306 307 304 307 309 307 304 305 310 309 304 307 311 306 302 302 305 310 312 312 314 312 309 310 310 308 307 308 307 303 300 299 300 300 301 304 304 303 308 309 300 296 298 298 300 304 307 307 304 304 305 305 305 306 307 309 309 308 308 309 309 310 310 309 309 307 307 306 306 306 307 307 307 306 305 304
298 297 298 308 309 302 302 302 299 304 308 306 306 306 306 308 307 305 306 305 303 305 305 305 308 307 305 305 307 309 309 309 309 306 304 305 305 305 304 304 306 306 303 300 300 300 300 304 304 303 308 308 300 296 299 301 304 307 310 312 309 305 305 304 304 305 306 307 308 308 309 310 310 311 309 308 308 308 307 307 307 307 307 306 306 305 306 305
Wind_Speed
3 4 3 2 3 2 2 4 5 6 6 5 5 6 6 9 11 11 11 10 10 11 10 9 9 11 12 12 7 7 4 5 5 6 3 4 7 8 7 6 4 3 3 2 3 5 3 2 3 2 2 2 2 1 1 2 1 1 1 2 3 2 2 2 4 3 1 2 4 5 5 5 2 3 3 1 5 7 5 7 9 9 11 13 9 5 6 4
5 5 3 2 4 4 3 4 7 8 7 7 7 8 8 10 11 11 10 9 8 9 9 7 8 11 13 11 4 11 8 2 6 5 4 7 9 8 6 5 4 2 2 1 4 6 4 2 3 2 1 1 1 1 1 1 2 0 1 3 3 1 1 1 0 1 0 2 4 4 3 4 2 2 3 3 5 5 7 9 9 11 14 16 15 14 12 8
7 5 3 4 6 6 5 6 7 9 9 9 9 9 10 11 12 11 11 9 8 8 7 5 7 10 13 11 0 11 8 3 6 2 5 10 9 8 6 3 3 2 1 1 4 6 4 3 4 2 0 1 1 1 1 2 2 0 1 4 2 2 1 1 1 1 0 1 2 3 3 5 4 2 2 4 4 5 9 9 7 10 12 11 12 13 14 13
9 6 5 6 8 7 6 7 8 10 11 11 10 10 11 12 12 11 11 10 8 7 5 5 6 8 10 9 2 7 4 2 2 2 7 10 9 8 5 3 3 2 1 2 4 4 4 4 4 2 1 1 2 1 1 2 2 1 1 3 2 2 0 2 1 1 0 1 0 3 3 4 3 2 3 3 5 7 8 8 8 8 6 5 5 5 8 13
9 7 7 9 10 8 8 8 8 10 12 13 12 12 12 12 11 11 11 10 8 6 5 6 7 7 7 6 2 6 2 1 1 4 8 9 9 8 4 3 4 3 3 4 5 6 6 5 3 2 1 1 1 0 0 3 2 1 1 2 3 1 1 1 1 1 0 0 1 3 3 2 2 3 6 6 7 5 0 2 6 6 1 1 2 1 3 8
10 9 10 11 11 10 9 9 9 10 12 13 13 12 13 12 12 10 10 9 7 6 7 7 8 7 4 3 3 5 1 1 2 5 8 9 9 7 2 3 4 4 3 4 5 6 4 3 2 2 1 1 0 1 1 2 2 2 1 2 2 0 1 1 1 1 1 2 3 2 1 1 1 4 3 8 14 6 3 3 2 2 2 3 2 2 3 6
11 12 13 13 12 11 11 11 11 11 13 15 15 13 13 12 11 10 8 8 7 8 10 9 9 7 4 0 3 3 1 1 3 6 9 9 8 7 1 3 3 5 4 5 5 4 2 2 3 2 2 1 1 1 1 1 2 3 0 2 2 0 2 2 1 1 2 3 1 1 2 2 4 4 1 7 17 12 4 0 2 3 2 3 3 4 4 4
12 13 14 13 13 13 12 12 13 14 15 17 17 15 14 12 10 9 7 6 6 7 10 10 10 7 4 2 2 1 1 0 3 6 7 8 8 7 2 2 2 5 5 5 5 4 3 2 3 3 1 1 2 2 1 1 2 2 1 4 3 0 2 1 1 1 2 2 1 1 4 3 3 3 3 12 14 9 6 3 4 5 3 4 4 5 5 4
12 14 14 14 13 13 13 14 15 16 16 17 18 16 14 12 10 8 7 5 4 7 8 7 7 6 5 3 1 2 0 2 4 6 6 7 8 7 3 3 3 5 6 5 4 4 4 3 3 4 2 1 2 2 1 3 2 0 2 4 3 1 2 2 2 0 0 1 0 3 6 2 0 2 7 15 7 0 3 4 4 5 7 9 8 7 6 5
12 14 14 14 14 13 14 15 16 17 17 17 16 15 13 11 9 8 7 4 3 6 7 7 4 5 6 4 1 2 1 2 4 6 6 5 6 5 2 3 4 5 6 4 3 4 3 3 5 4 3 3 2 1 1 2 0 3 5 4 3 1 2 2 1 1 1 1 1 4 7 3 1 1 6 5 1 1 3 4 3 4 8 9 8 9 7 6
12 13 14 14 14 14 15 16 16 17 16 15 14 13 11 9 8 8 6 4 5 6 4 6 3 5 6 4 3 2 1 2 4 6 6 4 5 4 2 1 4 5 6 5 4 4 2 7 11 5 1 3 4 2 1 0 2 4 4 4 2 1 2 1 0 2 2 1 2 4 8 5 3 5 9 3 3 1 3 4 3 4 6 6 7 8 7 8
11 13 14 14 15 15 16 16 16 16 15 14 13 11 10 9 8 7 5 4 5 4 3 4 2 4 4 3 2 0 2 3 4 6 7 3 6 7 5 3 4 5 5 5 4 4 6 12 12 5 1 3 4 2 2 1 1 3 1 1 1 2 3 0 1 2 3 0 2 3 7 6 8 10 10 2 1 2 4 6 4 4 4 4 5 5 6 8
12 13 13 14 15 15 15 15 15 14 12 11 10 10 10 8 7 6 5 3 4 4 3 2 2 3 3 1 2 2 2 4 3 3 4 3 6 9 8 5 5 4 4 6 7 8 11 10 9 7 2 2 3 1 4 3 1 2 1 2 1 3 2 1 1 1 2 0 1 3 5 3 8 12 8 3 1 3 5 6 4 3 2 2 3 3 5 6
11 13 13 13 13 13 14 13 13 11 10 9 8 9 8 7 6 6 5 4 5 6 4 2 1 2 2 0 2 1 1 3 4 4 5 4 5 9 11 9 9 9 8 11 12 12 12 12 13 10 3 3 3 3 4 3 0 1 1 1 1 2 1 3 2 3 2 1 0 3 5 4 3 7 5 3 1 3 5 5 3 3 1 1 2 3 4 4
11 12 13 13 12 12 12 11 11 10 8 7 7 7 5 5 5 6 5 3 3 6 5 2 1 2 1 1 2 2 2 1 5 8 7 5 4 6 10 13 14 15 14 15 15 13 12 14 12 7 3 1 3 4 3 1 1 0 2 2 1 2 1 3 2 3 1 1 1 3 5 6 4 1 4 3 1 1 4 4 3 3 2 2 2 3 3 3
11 11 12 12 11 12 12 11 11 9 7 6 5 4 4 6 6 4 3 3 3 4 3 1 0 2 1 0 2 1 2 2 6 8 8 6 5 6 8 11 13 12 13 13 13 12 10 10 6 2 2 1 2 3 1 1 2 1 2 2 1 2 2 1 2 2 2 1 3 5 5 6 4 2 4 3 2 2 4 4 5 4 3 3 3 2 3 3
10 9 9 9 10 11 11 11 10 8 6 4 3 4 6 6 3 2 1 2 2 4 2 1 1 2 1 1 2 0 2 3 5 6 6 7 5 6 5 6 6 7 9 8 8 7 8 6 1 0 2 1 1 1 2 3 3 2 2 2 1 2 2 1 2 1 2 2 4 5 7 11 9 3 3 6 5 4 6 7 8 6 5 4 3 3 3 3
8 7 7 8 9 9 10 10 9 8 6 4 3 4 4 2 2 3 1 3 1 2 1 2 2 2 1 1 1 1 3 4 4 5 5 5 6 5 4 3 3 2 4 4 5 4 4 2 1 1 2 1 2 3 4 2 2 2 3 3 1 2 4 3 1 1 2 2 5 6 8 14 16 12 10 9 7 6 9 9 8 8 7 5 4 5 4 4
6 5 7 7 7 8 9 9 9 9 7 4 3 2 1 1 2 4 3 1 1 1 1 1 1 2 0 0 1 3 3 3 3 5 6 4 4 6 5 4 2 1 1 1 3 3 2 1 2 2 2 2 1 2 2 2 3 0 1 2 2 3 3 2 1 2 3 3 7 9 10 13 15 14 13 9 6 7 10 9 7 7 7 6 6 5 5 6
5 5 6 5 6 7 8 9 10 9 7 4 2 0 1 0 1 1 4 4 1 0 1 1 0 1 1 1 3 3 1 1 2 5 8 4 2 4 4 4 2 2 2 0 2 2 1 1 2 1 1 1 2 1 2 2 2 1 1 1 2 3 3 1 2 2 1 4 6 6 8 13 15 16 15 7 6 8 11 10 9 8 8 7 7 7 7 7
5 5 5 6 7 7 8 9 10 9 6 4 2 1 0 2 0 0 2 2 0 0 2 1 1 2 1 2 4 3 1 2 1 5 9 6 1 2 1 3 1 1 2 1 1 1 1 2 1 2 3 3 3 2 1 1 1 0 1 2 2 3 3 1 2 1 1 3 3 1 7 14 15 16 14 7 7 10 11 10 10 9 8 7 7 8 7 5
4 4 5 6 7 8 8 9 9 8 6 5 5 2 2 4 3 2 2 1 1 0 1 0 1 2 2 2 4 3 0 1 1 3 9 6 1 1 0 2 1 1 2 0 1 1 1 2 2 3 3 4 4 1 2 1 1 0 1 2 2 2 3 0 2 1 0 3 3 3 8 15 16 14 12 9 9 8 6 7 6 6 7 7 8 8 6 6
3 4 6 7 8 8 9 9 9 8 7 7 6 5 3 5 5 5 3 1 2 1 0 0 1 0 1 1 2 2 1 1 0 2 9 7 1 0 1 3 2 1 1 0 1 2 2 1 3 3 3 3 2 1 2 2 1 1 1 2 2 0 2 2 2 1 1 2 5 7 8 11 12 9 6 5 5 4 3 5 4 4 6 5 4 4 6 8
3 3 6 8 8 8 8 8 8 8 9 9 8 8 7 6 6 7 2 1 1 1 1 0 1 1 0 1 2 2 1 1 0 2 9 6 2 1 0 3 2 2 1 1 1 2 0 2 2 3 2 1 1 2 3 3 1 1 2 2 2 1 1 2 2 3 2 2 3 8 8 6 4 3 3 1 1 3 2 4 6 6 6 3 2 2 5 7
3 3 5 7 8 8 8 6 7 8 9 8 9 11 10 6 8 7 2 1 1 0 1 2 1 1 1 1 4 2 2 2 0 2 7 5 1 1 1 1 0 2 1 1 2 1 2 1 2 3 2 1 2 2 3 3 1 2 3 2 0 1 1 3 4 5 3 2 1 4 6 3 0 2 4 1 1 4 2 3 6 6 5 4 5 5 5 5
3 2 4 6 8 9 7 4 5 7 6 6 7 8 8 8 8 5 2 1 1 1 0 1 1 0 1 3 5 1 2 1 1 1 4 4 2 1 3 1 1 2 2 2 1 1 2 2 1 1 2 3 2 3 2 2 2 1 1 1 1 1 1 2 3 3 3 2 1 1 4 5 3 4 2 1 3 5 4 5 6 5 5 6 6 6 6 6
2 2 4 6 8 10 7 2 4 7 3 4 8 8 9 9 6 3 1 1 0 1 0 0 1 1 1 2 4 0 1 1 0 1 4 4 3 1 1 1 1 2 2 2 1 1 3 3 2 1 2 3 2 2 2 2 3 1 1 1 2 1 0 0 1 2 3 3 1 0 2 5 6 3 1 2 5 6 6 7 7 5 6 6 6 5 6 7
2 2 5 7 9 12 6 2 6 7 3 4 10 11 10 8 4 1 0 0 0 0 1 1 0 1 1 1 2 1 0 1 0 1 2 4 3 0 0 1 3 3 2 2 2 0 1 3 4 3 2 3 1 1 2 1 3 1 2 1 1 1 1 1 2 2 1 3 2 1 2 4 6 3 1 1 4 8 9 9 8 7 7 6 6 6 6 5
2 3 6 7 11 11 6 3 6 5 5 8 13 12 9 6 2 0 1 1 0 1 1 1 1 1 1 1 2 2 0 1 1 1 1 3 5 3 1 2 4 7 3 2 1 1 1 0 1 2 2 1 2 3 2 1 2 2 4 2 3 2 2 1 2 1 1 3 2 2 2 4 5 3 1 1 3 7 7 6 7 6 6 6 6 7 6 5
2 3 6 8 11 10 5 4 5 5 7 13 13 10 6 2 0 1 1 1 0 1 0 0 1 1 1 1 1 2 1 1 2 2 1 1 4 5 2 1 3 5 4 4 4 2 0 0 1 0 1 0 3 3 2 1 1 2 4 2 2 2 1 0 1 1 3 3 1 2 1 3 4 4 2 2 2 3 3 4 6 6 5 6 6 6 7 7
1 2 6 8 9 9 5 3 6 8 12 14 11 6 2 1 1 2 1 0 1 0 0 0 1 2 2 1 1 2 1 2 3 2 1 1 2 3 2 1 2 2 1 2 3 2 1 2 1 1 1 1 2 3 1 0 1 1 2 1 1 1 1 2 2 2 4 2 2 2 1 2 5 4 2 2 2 3 4 5 8 10 9 7 6 6 6 6
1 1 6 7 6 8 6 3 7 13 14 13 8 3 1 0 1 1 1 2 1 0 0 0 1 2 2 0 1 2 1 1 2 2 1 0 1 2 1 1 2 1 2 2 2 0 1 1 1 1 1 2 2 2 2 1 2 2 1 1 3 1 1 2 2 2 3 0 3 1 1 3 7 8 7 6 5 5 5 5 5 9 10 9 7 7 5 5
2 2 4 5 5 7 7 5 10 16 14 10 5 1 2 1 2 2 0 1 1 1 1 1 1 1 1 0 1 1 1 0 2 1 1 0 1 1 0 0 1 1 1 1 2 2 2 1 2 2 2 2 3 2 1 1 3 2 1 1 3 2 1 2 1 2 2 1 2 0 1 4 6 7 8 9 5 2 2 4 5 3 6 7 7 6 5 5
3 4 2 3 4 6 7 8 13 15 12 7 2 2 2 1 2 1 1 2 1 1 1 1 1 0 1 0 0 1 2 1 1 0 1 1 1 2 2 2 2 0 1 1 2 2 3 2 2 3 1 2 4 2 2 1 2 2 1 2 2 2 2 3 2 2 2 1 1 1 2 4 3 1 1 3 3 3 3 3 3 4 1 3 4 5 5 6
4 6 5 4 4 5 8 11 13 12 8 3 3 2 1 2 2 1 2 2 1 0 1 1 0 1 0 1 1 1 1 1 1 1 1 1 2 3 2 3 4 2 2 3 2 1 2 2 2 1 0 1 2 0 1 2 1 2 0 1 2 1 1 1 1 1 2 3 2 2 3 4 4 4 1 1 3 3 2 1 2 3 2 4 4 5 6 6
5 5 5 5 5 5 8 10 11 9 5 2 3 1 2 2 1 2 2 2 2 3 3 1 1 2 1 1 0 0 0 0 0 1 2 1 2 3 1 1 3 3 2 2 2 2 2 1 2 1 1 1 1 1 1 2 0 2 2 1 0 1 1 1 1 1 1 3 2 1 4 4 4 6 1 1 2 3 2 3 4 5 6 6 6 6 6 6
5 4 3 4 3 4 6 7 8 6 2 3 2 2 2 1 1 2 2 2 1 2 3 2 1 1 2 2 1 1 1 1 1 1 2 1 2 3 3 1 1 2 1 1 1 1 1 0 2 0 1 2 1 1 1 2 1 1 1 1 1 1 1 0 1 1 1 4 2 1 5 5 3 3 2 2 2 4 4 5 5 6 7 7 7 7 7 6
5 4 3 3 2 4 6 6 7 4 2 2 1 3 2 1 1 0 1 1 1 1 2 2 1 1 1 2 1 2 1 2 1 1 2 2 2 2 3 2 1 0 1 1 1 0 1 2 2 0 0 2 1 2 2 2 1 2 1 1 0 2 1 1 1 2 2 4 3 2 4 4 4 4 3 1 3 5 6 6 7 9 10 9 8 8 8 7
4 3 1 2 1 3 6 6 5 3 2 1 2 2 1 1 1 0 0 0 0 1 2 2 0 1 1 2 1 2 2 2 2 1 2 2 1 1 1 1 1 1 0 1 1 0 0 2 1 1 1 1 1 4 3 3 3 1 2 1 0 2 2 0 0 1 2 3 3 2 3 3 5 4 4 4 4 5 8 8 9 12 12 10 9 9 9 8
3 1 0 1 1 4 7 5 3 2 1 1 2 1 0 1 1 0 1 1 0 1 1 1 1 1 2 1 1 1 1 1 2 1 1 1 1 1 1 1 2 3 1 1 2 1 1 1 1 1 1 2 2 3 2 2 3 3 3 3 3 1 1 1 1 0 1 3 2 2 4 5 3 3 5 6 4 4 8 9 10 11 11 11 10 9 9 9
1 0 1 1 2 5 6 4 3 1 1 0 1 1 0 0 1 1 0 0 1 1 0 1 1 1 2 2 2 2 2 1 2 2 2 2 2 1 1 1 1 3 2 2 2 2 1 1 1 2 2 4 1 1 2 2 1 1 2 3 4 3 2 3 3 1 0 2 2 1 5 7 2 2 4 4 2 2 5 7 8 9 11 11 9 9 9 9
1 1 1 1 2 6 4 3 2 0 1 1 0 0 0 0 1 1 0 0 1 0 1 1 0 1 2 1 0 2 3 2 2 2 3 3 2 1 2 1 1 1 1 1 0 1 0 0 1 2 2 1 1 2 1 2 2 1 2 1 1 2 3 4 3 2 2 1 0 1 4 6 1 2 3 3 2 2 3 5 6 7 9 9 8 8 9 9
1 1 1 4 1 4 2 2 1 1 1 1 1 0 1 0 1 1 1 2 1 1 0 1 1 2 2 1 2 3 4 3 4 3 2 2 1 0 2 1 2 1 1 1 1 1 2 1 2 2 0 2 1 1 1 1 1 3 3 2 2 1 1 1 1 1 2 3 3 2 4 6 1 1 2 2 3 5 4 5 7 7 6 7 7 7 8 9
1 1 1 5 2 3 2 2 2 2 1 1 1 0 0 1 2 1 2 3 2 2 2 2 1 1 0 1 1 3 3 2 3 2 1 2 1 2 2 2 2 2 2 1 1 2 2 2 2 2 2 2 2 2 2 2 2 4 2 2 3 1 3 2 1 1 2 5 5 3 7 7 0 1 2 3 3 6 7 5 6 7 6 6 6 6 8 9
2 1 1 4 5 3 1 1 1 2 2 1 0 1 1 2 2 1 1 2 1 2 1 0 0 1 2 2 1 0 1 1 1 1 0 1 1 1 1 1 2 2 1 1 1 1 1 1 3 3 4 5 3 1 1 1 3 3 2 3 5 5 5 3 2 2 4 4 5 6 9 6 1 1 3 4 4 6 7 5 5 6 7 6 5 6 8 9
2 1 1 2 4 3 1 0 1 2 3 2 1 1 2 2 1 0 1 2 1 1 0 0 1 1 2 2 1 1 2 1 1 0 2 2 1 1 1 0 0 1 0 1 2 1 0 1 4 6 7 6 2 1 1 1 3 3 3 5 7 7 6 3 2 4 5 4 4 11 10 8 11 10 8 7 6 5 6 5 4 5 6 7 7 7 7 8
1 1 2 2 0 1 1 0 1 1 1 2 2 2 3 2 1 1 2 2 0 1 1 0 2 3 3 4 3 3 2 0 1 1 3 2 1 1 1 0 1 0 1 2 2 1 1 2 5 8 10 7 1 1 2 3 3 4 4 6 8 9 8 7 8 6 5 4 8 10 7 9 18 18 12 8 7 5 6 6 5 5 5 6 6 7 8 8
0 1 1 0 1 2 1 2 3 3 1 1 1 1 2 2 2 2 3 1 1 2 3 2 3 6 6 4 4 3 2 1 2 3 2 2 1 2 1 1 1 0 1 1 1 0 2 3 2 4 6 6 1 1 2 3 3 3 5 8 9 11 12 13 14 10 8 9 14 6 6 10 17 18 13 6 5 7 9 7 5 4 3 4 5 7 9 10
0 0 1 3 1 1 0 1 4 4 3 2 1 3 4 5 5 3 2 2 1 3 4 4 6 8 7 4 3 3 4 3 3 4 3 2 2 2 1 2 2 0 1 2 1 1 2 3 1 1 5 5 1 1 2 4 4 5 9 13 10 11 15 15 14 12 11 13 17 11 7 12 17 20 16 3 5 6 8 5 5 6 6 5 6 8 10 11
1 1 1 1 1 1 1 1 3 4 2 2 2 3 3 6 7 3 2 5 4 3 5 6 5 5 6 6 4 5 6 5 1 2 5 4 2 2 3 2 3 2 1 3 1 1 3 1 3 2 3 4 1 3 2 3 4 6 12 14 10 9 12 14 12 9 9 14 16 11 10 14 18 20 13 4 2 6 7 9 10 11 9 6 7 8 10 11
1 0 2 2 2 2 1 1 2 2 2 3 4 4 4 7 8 5 3 4 3 5 8 7 4 3 2 4 7 8 6 5 2 1 5 4 1 2 2 1 4 6 4 3 2 1 3 1 2 2 2 3 1 2 2 2 2 6 14 15 13 11 11 12 10 9 13 14 10 5 6 14 17 11 4 4 5 7 9 11 10 10 10 8 9 10 11 12
1 1 1 2 2 2 2 1 1 1 2 4 5 5 4 4 4 5 3 1 1 2 4 5 5 4 2 5 10 8 2 3 2 1 2 1 2 2 1 1 3 4 5 6 3 1 3 3 2 2 3 3 1 1 1 1 1 5 10 11 14 14 12 9 7 11 16 13 7 7 11 15 13 3 1 6 6 6 8 8 7 9 10 9 10 11 11 11
Wind_Direction
333 342 334 328 335 324 307 344 2 5 347 334 312 300 304 293 292 293 290 292 298 302 310 322 322 316 315 310 267 206 151 110 67 51 71 3 340 328 320 300 288 267 273 271 190 176 159 158 158 135 150 108 13 354 99 33 17 245 212 220 227 204 203 191 184 194 328 63 134 159 185 206 191 165 185 221 223 236 243 238 237 238 243 243 247 220 198 209
311 321 310 294 317 324 309 315 340 353 345 331 319 309 306 299 300 303 297 295 300 301 310 322 322 326 333 335 251 193 172 112 11 31 36 349 337 327 316 294 272 248 271 228 185 187 191 179 150 135 167 142 5 359 175 346 337 199 143 230 230 186 106 52 172 187 61 68 112 147 181 209 220 146 165 237 217 208 248 242 227 242 247 242 241 234 226 229
303 306 284 288 316 326 318 302 317 344 344 325 317 316 314 310 308 308 302 298 304 300 305 315 314 329 342 355 296 187 178 324 326 6 360 341 333 325 313 284 247 222 224 188 183 195 211 176 145 140 128 93 34 22 244 348 332 212 206 237 229 51 48 67 310 343 76 50 99 142 157 213 220 133 168 249 254 223 240 240 217 234 247 240 231 227 224 224
297 297 275 289 313 316 318 312 310 333 342 327 312 312 317 316 309 304 300 298 305 298 294 301 303 326 348 6 68 165 153 315 300 3 347 337 331 328 314 250 212 209 181 171 167 169 162 134 115 74 129 142 32 359 289 3 344 177 230 261 57 36 338 136 232 316 327 313 7 136 146 217 200 164 216 240 266 243 234 236 229 234 241 230 208 202 213 217
292 290 276 289 307 304 308 315 312 320 331 328 309 300 307 311 305 299 295 297 307 300 287 290 291 307 344 13 115 148 139 253 104 4 342 339 336 335 310 205 192 196 163 158 140 133 127 109 93 75 115 163 69 206 119 19 346 192 169 4 61 42 302 97 272 316 185 236 170 158 172 229 135 201 224 223 243 248 309 253 236 237 275 284 223 181 203 210
285 282 278 286 297 296 295 304 307 306 318 325 310 296 300 306 302 295 293 299 311 308 295 286 282 283 316 16 159 162 222 275 51 353 346 344 339 343 309 176 187 192 158 160 147 134 117 89 139 156 107 102 182 220 68 25 311 245 123 68 93 87 333 359 333 260 204 193 180 173 258 337 205 239 218 222 238 239 61 47 317 311 4 337 307 256 221 211
276 275 277 282 290 291 290 297 306 306 311 321 313 301 299 302 300 295 295 307 319 310 295 280 274 274 271 23 142 151 258 298 17 349 351 344 341 353 313 188 200 187 166 176 159 133 124 124 165 161 91 111 201 173 55 359 271 269 189 125 119 85 299 322 341 230 214 221 201 17 300 241 239 263 42 240 243 240 230 98 338 328 358 331 293 251 243 234
272 272 275 280 285 287 288 294 304 303 307 315 314 305 300 302 299 295 296 312 332 321 300 276 265 263 245 195 145 172 240 49 2 351 354 344 345 356 297 218 191 181 183 184 167 150 151 145 154 167 129 124 201 151 69 268 199 264 219 134 118 212 274 291 268 219 208 250 316 291 262 247 257 318 303 257 250 240 250 279 281 264 261 263 252 245 246 247
272 270 272 274 276 280 283 290 298 299 303 309 309 302 298 300 297 293 298 307 349 348 331 304 273 248 212 174 208 278 183 51 2 356 358 350 351 353 297 228 186 185 181 163 175 186 178 170 167 183 154 110 179 136 331 246 201 32 109 129 136 191 267 256 234 133 142 249 103 253 268 267 260 336 265 254 255 218 260 266 255 240 238 238 234 235 234 237
273 270 269 270 272 276 279 285 292 295 299 303 301 295 292 293 291 291 295 293 322 337 343 345 314 218 192 174 230 292 88 39 3 1 1 358 353 345 287 208 177 178 166 135 165 185 196 184 153 150 128 100 146 124 327 259 165 91 110 116 112 188 269 269 226 50 343 208 137 263 277 282 120 279 256 234 126 22 256 222 210 223 235 237 233 234 231 233
271 267 268 272 275 277 280 283 287 290 294 295 290 286 284 284 286 285 286 291 305 307 319 350 336 198 186 195 243 282 77 28 7 10 2 360 5 5 24 145 167 171 154 127 163 190 189 153 139 130 136 129 139 98 25 262 102 100 116 124 101 258 234 252 212 29 339 185 156 262 278 267 150 225 249 188 121 253 266 234 217 228 238 240 236 235 230 231
271 268 270 274 277 280 281 282 285 288 287 285 281 279 281 282 284 277 275 290 293 290 299 350 7 173 179 201 234 23 67 20 10 13 4 14 24 24 36 74 150 164 160 140 169 182 147 143 132 96 9 162 150 112 121 140 73 93 95 189 171 226 199 63 46 28 334 76 148 254 275 245 183 221 241 163 135 255 264 257 242 230 238 236 231 231 225 225
274 274 275 274 276 278 279 283 285 285 282 277 274 276 284 288 283 266 260 275 265 276 292 342 35 161 205 222 105 79 51 15 17 22 12 38 34 32 42 61 117 130 158 147 133 132 135 135 113 91 59 117 119 140 139 117 29 114 249 269 231 223 198 39 35 335 305 114 133 251 280 242 189 221 226 103 320 259 246 247 236 226 236 229 224 229 229 220
268 272 275 272 275 276 276 281 281 278 277 272 271 282 293 290 278 261 255 263 256 273 278 285 330 185 225 274 111 65 25 17 28 39 32 58 63 53 59 70 97 105 113 120 114 115 124 116 103 101 58 31 111 157 132 97 358 134 244 233 256 249 178 72 37 321 273 141 63 246 262 272 211 209 181 100 321 252 243 227 211 227 228 226 223 237 239 223
267 271 273 270 271 272 269 271 272 271 264 263 278 291 301 297 282 265 252 258 277 289 283 274 305 166 157 69 141 41 24 11 19 25 31 56 93 80 75 83 91 97 101 101 99 101 109 105 92 86 60 360 162 150 111 83 144 18 258 204 173 254 206 96 72 350 325 146 264 235 255 278 285 177 133 124 134 262 261 232 216 235 232 235 222 230 245 236
270 268 268 265 262 262 259 259 259 252 242 255 277 289 315 317 296 278 259 259 298 320 305 258 172 164 191 86 154 51 33 17 7 15 30 46 91 114 96 86 85 91 99 95 91 85 77 81 65 36 100 169 184 123 124 205 194 196 264 243 170 222 248 142 132 44 358 316 231 225 263 289 295 62 123 169 216 288 284 261 249 243 236 240 225 221 245 246
272 265 266 265 259 256 250 246 240 225 222 240 258 295 318 320 304 313 291 240 323 5 17 33 97 144 168 101 151 96 5 354 356 7 30 46 84 124 116 85 82 93 101 90 77 61 42 57 77 273 78 94 105 104 198 223 230 195 224 258 227 223 252 251 159 100 344 258 225 216 244 265 263 250 193 199 214 260 275 267 261 255 241 231 231 239 236 236
276 269 266 264 259 250 237 229 216 204 208 223 259 305 322 351 55 19 304 212 272 360 46 58 91 163 177 134 164 316 317 329 357 7 18 45 75 109 120 104 114 114 106 80 42 28 23 39 221 155 105 135 150 198 210 240 267 193 194 233 242 219 239 269 224 53 349 246 240 235 239 260 264 259 246 220 206 247 262 260 258 256 247 232 226 230 225 223
277 261 254 255 246 229 218 208 197 195 204 228 268 304 323 50 48 30 39 106 227 277 197 93 129 213 256 187 324 332 314 322 10 17 14 38 84 93 84 77 102 93 127 134 38 21 5 84 169 169 170 187 164 213 246 333 335 289 198 237 254 240 241 263 87 45 359 274 250 245 249 267 271 268 262 234 194 235 253 250 248 245 243 235 224 221 216 219
264 244 233 230 215 206 199 193 192 195 207 240 263 310 290 266 37 35 47 48 57 48 346 17 41 316 23 354 330 341 6 48 35 23 20 20 101 104 53 19 36 63 54 318 39 39 306 193 183 198 138 113 85 54 329 337 329 359 131 199 241 259 264 128 91 72 24 282 255 241 264 274 271 269 268 238 187 232 244 238 239 232 229 225 217 216 208 212
256 240 223 209 198 193 189 189 193 199 217 240 208 130 190 193 150 101 87 37 22 334 345 330 280 300 310 305 329 341 58 81 59 23 21 21 112 153 343 357 66 94 44 329 316 73 235 230 171 68 68 68 77 89 332 299 306 16 174 237 227 240 263 106 83 88 93 298 268 247 289 276 267 267 267 241 210 238 240 231 234 227 222 218 211 212 203 199
252 236 220 204 195 190 187 191 198 209 228 229 203 194 230 232 251 214 163 114 155 250 343 281 271 304 288 284 333 344 248 107 100 24 11 9 56 149 275 50 85 108 48 310 222 137 220 211 97 75 94 90 84 94 282 261 244 278 174 250 245 236 274 210 102 117 140 295 295 343 310 282 275 272 270 257 236 242 241 233 241 226 220 215 205 203 190 184
255 236 217 203 197 193 190 198 208 220 229 224 213 210 236 263 240 194 166 105 125 151 309 167 223 289 335 310 1 352 193 127 162 14 1 357 62 18 130 103 77 114 95 278 188 174 218 147 90 93 114 102 96 162 244 199 168 248 201 246 258 41 294 247 100 87 213 261 295 308 296 277 278 274 264 259 244 256 256 243 253 243 236 224 202 200 186 183
268 239 216 207 202 200 201 208 217 226 232 233 234 237 259 272 208 176 143 52 138 151 191 206 202 193 41 38 360 344 145 89 276 353 355 357 150 263 70 104 103 137 96 332 172 157 76 50 91 126 103 55 174 170 210 219 198 213 226 250 262 122 231 264 341 321 251 179 282 297 282 262 273 282 257 141 191 263 244 236 241 230 234 241 244 224 198 189
296 252 220 211 205 204 204 209 220 225 228 232 242 252 256 230 190 182 142 50 215 182 189 195 185 153 96 13 352 349 149 89 16 308 346 6 127 201 120 92 266 161 148 175 153 121 69 74 150 143 128 221 209 203 211 228 255 216 214 234 327 93 203 281 320 316 273 189 146 318 298 274 124 268 255 146 228 243 185 218 227 204 200 213 214 201 190 197
304 248 212 205 203 196 188 200 222 213 213 228 236 234 214 190 185 189 148 76 236 246 278 185 181 54 50 352 354 9 172 59 3 326 6 26 23 153 135 107 356 116 157 153 112 88 94 102 170 152 175 196 227 249 188 189 262 249 171 137 124 126 158 301 318 302 283 286 87 342 293 285 287 259 233 31 283 252 216 221 213 187 186 198 201 188 176 183
295 218 193 193 192 181 174 217 205 182 190 230 209 190 185 181 168 169 160 31 265 215 16 200 282 335 15 339 342 281 195 341 54 48 26 20 14 18 123 153 126 84 138 175 143 111 114 132 169 144 174 194 224 243 152 175 261 278 107 141 147 157 173 32 301 260 291 319 277 98 314 279 281 279 101 7 289 256 235 220 203 189 191 193 192 185 179 180
286 199 184 186 184 179 183 240 183 183 257 214 178 175 182 177 162 156 98 78 36 59 54 100 98 17 31 328 5 51 355 329 119 101 23 18 33 47 343 121 137 97 89 236 229 67 95 168 179 155 175 212 217 15 79 191 279 46 121 148 117 99 88 124 258 244 284 304 237 121 14 266 262 271 97 20 278 254 237 215 201 191 186 190 188 182 183 176
288 199 183 185 185 185 199 217 187 217 247 178 164 172 176 171 182 357 72 199 250 93 60 51 117 28 352 296 34 44 28 9 12 338 342 27 38 45 80 106 118 106 78 345 53 84 15 192 198 169 203 221 96 49 18 263 289 115 137 114 94 99 79 117 269 240 195 266 235 118 357 274 267 274 193 105 268 254 237 207 196 189 181 187 184 177 176 167
293 201 182 181 186 191 205 219 223 232 183 163 164 173 175 170 190 100 81 255 153 137 335 327 245 325 351 197 39 16 5 37 348 340 344 93 40 44 75 147 121 108 77 43 62 75 78 87 259 276 308 39 102 86 19 330 18 140 161 151 125 139 92 174 262 268 229 245 171 91 330 283 284 283 231 204 248 255 234 200 191 190 190 190 184 176 173 167
320 203 179 175 184 194 198 215 218 192 166 164 166 168 168 4 84 136 240 289 98 192 289 47 304 357 36 167 57 16 48 21 333 347 73 110 54 66 118 193 147 117 108 93 72 49 156 176 203 93 108 169 131 119 86 97 220 210 205 240 257 192 172 201 184 199 243 238 95 83 316 263 253 256 234 200 218 235 237 219 199 191 190 185 179 176 171 167
31 178 183 185 192 198 204 216 185 171 164 163 160 148 134 324 236 208 281 337 38 273 187 86 313 15 38 101 43 7 359 25 360 22 77 97 131 141 175 201 165 177 224 180 136 96 192 166 68 81 170 217 219 163 141 170 210 248 235 230 268 266 224 241 204 202 250 295 83 101 292 256 248 254 260 255 241 233 237 251 229 195 183 177 173 173 167 163
75 110 179 201 208 208 218 210 173 167 166 162 152 67 77 120 236 197 250 315 359 350 50 68 20 28 31 173 123 359 275 317 16 37 93 341 215 183 196 185 167 259 259 152 149 177 197 134 151 194 180 192 222 212 190 188 176 202 224 244 269 287 293 262 251 271 275 55 91 111 271 262 265 266 258 258 274 294 253 272 285 238 184 171 166 164 163 164
87 90 123 184 194 202 200 179 167 166 166 160 130 56 87 246 241 169 242 258 281 354 25 67 47 63 63 105 210 252 221 228 15 49 156 105 197 215 210 194 200 221 95 148 187 189 222 235 176 185 141 153 209 251 338 302 164 170 359 336 267 263 280 272 274 282 296 344 115 161 246 242 259 316 219 263 321 333 274 262 290 291 206 126 138 150 162 170
105 100 98 117 139 163 166 164 164 165 166 144 62 80 162 244 230 181 237 227 188 134 82 14 200 141 70 347 334 310 230 216 68 144 184 171 197 208 196 184 192 191 159 182 187 151 242 271 85 100 10 164 202 153 336 256 188 139 78 284 249 279 295 278 356 347 338 313 243 203 247 242 262 284 258 282 280 251 240 204 206 222 159 129 159 171 174 172
132 113 100 103 110 137 155 161 162 164 163 103 69 116 213 239 199 180 184 132 133 149 141 175 199 174 237 268 124 81 285 289 153 194 206 219 226 213 199 183 182 190 194 195 179 159 252 284 86 122 177 134 346 27 237 268 253 144 190 213 185 348 349 131 107 81 144 267 249 198 260 270 292 286 285 67 256 213 173 174 188 187 166 169 185 182 182 175
145 123 91 84 95 139 156 160 161 164 141 95 121 213 216 233 235 185 155 98 93 139 142 182 205 195 228 229 191 166 177 235 224 211 200 203 226 196 183 208 170 179 251 298 226 205 282 167 128 182 149 112 359 281 235 273 289 222 208 96 88 260 308 355 260 235 202 255 257 202 266 288 317 295 338 58 234 217 193 182 181 183 181 191 195 187 183 173
152 133 87 62 87 152 157 159 158 148 80 94 222 253 201 191 301 182 139 113 115 113 158 200 228 4 224 216 194 133 161 203 158 181 223 199 213 176 157 170 138 101 316 304 278 273 268 227 148 73 320 103 117 249 227 187 224 280 297 31 324 240 210 147 242 265 257 271 278 254 276 277 230 242 288 281 226 217 200 182 188 197 196 199 197 188 183 172
168 149 72 52 84 148 153 156 146 99 68 150 226 262 206 215 283 357 317 327 140 151 187 217 349 17 188 180 164 146 176 202 145 181 236 195 214 176 125 156 151 128 334 266 275 345 218 250 192 117 313 13 170 225 218 164 160 224 257 218 258 292 295 231 183 293 269 278 294 298 304 259 214 214 247 251 243 214 192 188 202 204 199 200 195 186 184 180
176 181 334 40 82 145 148 137 106 82 92 171 212 229 309 276 238 78 347 313 273 172 186 188 161 196 200 198 264 188 155 217 178 192 242 200 241 224 78 33 144 152 208 271 273 273 116 244 238 131 250 255 205 205 228 174 151 180 201 190 179 184 316 268 219 51 278 269 268 282 286 261 215 182 218 238 256 219 200 203 208 204 199 200 196 188 184 182
150 182 218 27 96 151 144 98 56 88 146 167 208 202 244 248 162 98 27 343 336 343 22 153 161 180 179 189 246 185 157 200 201 216 240 207 222 237 59 15 134 148 167 185 223 233 173 192 213 151 195 227 202 53 347 345 2 220 208 198 192 171 158 226 232 146 358 274 244 262 284 271 234 162 215 234 261 247 233 229 220 206 202 202 198 192 186 183
118 192 240 8 158 166 137 70 52 131 206 199 212 189 185 335 127 117 122 63 324 299 47 43 133 171 175 183 206 168 175 195 177 204 239 211 219 253 82 37 289 210 171 165 165 256 189 139 218 205 198 219 43 48 18 333 326 283 280 274 211 180 197 227 238 191 154 212 352 50 284 278 264 135 226 250 269 278 281 263 245 226 210 205 200 192 189 188
128 174 42 19 177 176 120 78 176 224 229 277 338 112 139 221 171 138 192 205 209 188 153 239 206 199 220 201 138 178 203 202 181 191 224 220 233 112 126 169 248 219 194 177 126 161 197 193 229 259 320 103 100 120 162 272 269 244 236 214 201 214 235 272 289 188 167 180 168 167 255 265 331 97 243 265 276 273 266 244 242 243 230 212 203 196 193 191
119 169 30 15 24 182 178 174 189 210 219 304 356 95 153 233 198 172 206 210 198 180 183 204 203 189 206 110 131 194 214 207 200 203 219 217 184 99 138 213 231 204 204 259 108 172 214 197 194 262 274 201 186 176 180 197 224 243 228 177 206 185 101 91 125 150 236 212 180 197 254 257 245 71 255 249 258 265 257 229 222 238 240 219 208 203 196 192
121 134 308 3 39 85 184 209 156 148 153 128 329 227 205 214 211 213 226 218 202 192 183 172 222 93 89 83 66 230 262 287 222 204 281 226 197 116 131 235 251 245 272 327 316 237 244 210 184 217 242 239 235 232 230 163 165 215 216 188 207 189 162 173 169 182 227 204 163 210 246 261 257 181 235 244 246 259 258 232 210 232 238 224 217 208 198 197
153 139 246 338 28 61 81 23 92 125 143 157 212 226 189 188 199 36 209 215 171 156 61 16 157 111 106 146 178 223 251 308 27 27 249 227 191 132 120 101 278 267 253 253 267 272 124 230 231 235 244 250 257 93 156 140 143 177 193 193 200 198 196 196 171 204 201 153 198 229 239 284 285 255 229 227 230 243 256 245 226 233 231 221 219 213 204 204
174 184 164 169 51 79 54 341 166 134 153 188 196 183 182 192 168 111 198 233 133 145 224 276 176 192 181 172 184 204 219 283 54 224 239 230 156 117 176 125 69 205 224 233 263 223 159 232 228 227 245 259 298 110 180 199 215 203 194 197 194 192 192 191 205 210 143 141 246 238 200 249 270 263 245 228 219 231 246 248 251 248 230 218 212 207 208 209
206 196 134 86 213 177 184 211 176 147 150 205 191 164 177 185 186 193 194 209 335 216 204 213 225 219 200 172 174 181 172 209 234 224 217 202 178 153 164 163 128 182 206 201 289 229 206 252 215 197 254 267 221 152 193 204 248 245 227 226 204 188 190 200 217 212 164 203 250 245 161 220 256 267 264 229 187 234 252 255 267 271 241 214 201 202 208 208
86 150 37 360 321 178 112 108 140 146 163 170 188 198 193 196 206 212 142 120 254 239 206 225 235 217 199 187 176 175 180 194 230 233 200 168 182 180 181 180 154 119 200 173 209 267 215 237 139 138 279 281 151 114 191 212 247 257 245 239 219 194 196 207 222 215 201 233 255 259 256 258 263 267 267 225 146 231 258 265 264 262 248 215 202 211 213 208
184 189 142 53 39 96 21 52 129 146 152 159 219 216 193 197 205 202 152 172 193 182 189 227 237 196 184 192 198 217 210 189 188 219 182 165 182 203 212 202 143 128 194 180 161 268 243 235 95 103 283 288 46 81 139 215 242 253 257 250 227 205 212 223 233 225 221 247 257 261 278 277 266 263 266 274 233 232 242 249 250 254 255 238 221 222 218 212
194 118 140 135 138 155 146 61 125 153 164 184 208 205 196 206 203 185 182 200 186 165 184 203 189 132 136 195 216 236 227 182 147 181 178 175 187 189 202 177 140 147 174 180 151 175 216 228 85 98 265 274 32 70 164 202 240 260 268 257 223 203 212 218 217 202 207 225 241 253 262 257 257 263 281 266 240 221 232 243 247 252 253 244 236 233 224 216
168 61 92 128 151 177 158 100 127 191 213 204 192 188 199 208 189 175 186 206 108 159 198 188 155 129 123 203 222 244 244 155 138 73 136 128 70 89 93 85 128 146 162 168 162 160 190 198 153 155 236 254 342 343 226 177 245 256 260 242 211 203 211 221 221 214 211 211 217 221 227 240 250 266 289 242 217 200 231 238 238 249 250 242 238 237 232 223